Tracking 22458 objects as of 3-Mar-2021
HD Live streaming from Space Station
objects crossing your sky now

ARIANE 42L+3 R/B

Track ARIANE 42L+3 R/B now!


NORAD ID: 23637
Int'l Code: 1995-040B
Perigee: 638.9 km
Apogee: 36,764.2 km
Inclination: 4.5 °
Period: 658.5 minutes
Semi major axis: 25072 km
RCS: 21.0891 m2 (large)
Launch date: August 3, 1995
Source: France (FR)
Launch site: FRENCH GUIANA (FRGUI)

Note: This is a ROCKET BODY
aabbcc
Your satellite tracking list
Your tracking list is empty




NASA's NSSDC Master Catalog

Two Line Element Set (TLE):
1 23637U 95040B   21060.63067869 -.00000100  00000-0  60768-3 0  9995
2 23637   4.5205 321.9977 7204157  57.2515  37.7984  2.18678412204258
Source of the keplerian elements: AFSPC